{"data":{"norad_id":64326,"epoch":"2026-05-25T02:56:00.252096Z","epoch_age_seconds":58260,"freshness":"FRESH","line1":"1 64326U 25124K   26145.12222514  .00182666  00000+0  13930-2 0  9998","line2":"2 64326  43.0008 288.6451 0001143 279.6493  80.4246 15.70892023 54854","mean_motion":15.70892023,"eccentricity":0.0001143,"inclination_deg":43.0008,"raan_deg":288.6451,"arg_perigee_deg":279.6493,"mean_anomaly_deg":80.4246,"bstar":0.001393,"rev_number":5485,"period_min":91.66766263476,"perigee_km":355.57662275213,"apogee_km":357.11612565147,"semimajor_km":6734.4833742018,"source":"CELESTRAK","updated_at":"2026-05-25T13:38:20.395560Z"}}